GPS BIIR-8 (PRN 16)

Last updated on Sat Apr 11 2026 00:03:22 GMT+0000 (Coordinated Universal Time)

1 27663U 03005A 26100.31213978 -.00000008 00000+0 00000+0 0 9992 2 27663 54.8973 217.6646 0148397 52.9156 317.7787 2.00564268169957
UTC large
Height (km)
Speed (km/s)
/
Latitude / Longitude
Inclination (degrees)
Orbital Period (minutes)
Azimuth
Elevation
Range (km)
Doppler Factor

Next 0 passes for location: London (51.5072 / 0.1276)

Sorry there are no passes over London.
GPS BIIR-8 (PRN 16)